Weather History for Cape Lisburne, AK

Change the Weather History Date:

Saturday, May 11, 2013

  Actual Average Record
Temperature  
Mean Temperature 24 °F -  
Max Temperature 34 °F 29 °F 39 °F (2004)
Min Temperature 14 °F 20 °F 8 °F (2001)
Degree Days  
Heating Degree Days 41    
Moisture  
Dew Point 27 °F    
Average Humidity 95    
Maximum Humidity 100    
Minimum Humidity 86    
Precipitation  
Precipitation 0.04 in - - ()
Sea Level Pressure  
Sea Level Pressure 29.95 in    
Wind  
Wind Speed 25 mph (WSW)    
Max Wind Speed 33 mph    
Max Gust Speed 38 mph    
Visibility 5 miles    
Events Rain , Snow    
Averages and records for this station are not official NWS values.
T = Trace of Precipitation, MM = Missing Value Source: NWS Daily Summary

Daily Weather History Graph

Daily Weather History Graph

Search for Another Location

Airport:

Trip Planner

Search our weather history database for the weather conditions in past years. The results will help you decide how hot, cold, wet, or windy it might be!

Date:

Astronomy

May. 11, 2013 Rise Set
Actual Time 4:52 AM AKDT 1:14 AM AKDT
Civil Twilight Sun does not rise Sun does not rise
Nautical Twilight Sun does not rise Sun does not rise
Astronomical Twilight Sun does not rise Sun does not rise
Moon 5:43 AM AKDT (5/11) 2:34 AM AKDT (5/11)
Length of Visible Light 24h 00m
Length of Day
20h 22m
Waxing Crescent, 3% of the Moon is Illuminated
May 11
Waxing Crescent
May 17
First Quarter
May 24
Full
May 31
Last Quarter
Jun 8
New

Hourly Weather History & Observations

Time (AKDT) Temp. Windchill Dew Point Humidity Pressure Visibility Wind Dir Wind Speed Gust Speed Precip Events Conditions
12:00 AM 32.0 °F 17.0 °F 32.0 °F 100% 30.01 in 1.5 mi SW 33.4 mph - N/A Rain Light Rain Showers
12:25 AM 32.0 °F 17.4 °F 32.0 °F 100% 30.01 in 8.0 mi SW 31.1 mph - N/A   Mostly Cloudy
12:50 AM 32.0 °F 17.9 °F 32.0 °F 100% 30.01 in 10.0 mi SW 28.8 mph 38.0 mph N/A   Mostly Cloudy
12:55 AM 32.5 °F 18.4 °F 31.6 °F 96% 30.01 in 10.0 mi SW 29.9 mph 38.0 mph N/A   Mostly Cloudy
1:20 AM 32.0 °F 17.6 °F 32.0 °F 100% 30.02 in 3.0 mi SW 29.9 mph 36.8 mph N/A   Mostly Cloudy
1:45 AM 32.0 °F 17.4 °F 32.0 °F 100% 30.02 in 2.5 mi SW 31.1 mph 36.8 mph N/A Snow Light Snow
1:55 AM 32.0 °F 17.6 °F 31.8 °F 99% 30.02 in 2.5 mi SW 29.9 mph 36.8 mph N/A Snow Light Snow
2:30 AM 32.0 °F 18.1 °F 32.0 °F 100% 30.02 in 4.0 mi SW 27.6 mph 35.7 mph N/A Rain , Snow Light Rain Showers
2:55 AM 32.0 °F 17.9 °F 31.1 °F 96% 30.01 in 6.0 mi SW 28.8 mph 34.5 mph N/A Rain , Snow Light Rain Showers
3:15 AM 32.0 °F 17.6 °F 32.0 °F 100% 30.01 in 3.0 mi SW 29.9 mph - N/A Snow Light Snow Showers
3:55 AM 32.4 °F 18.9 °F 30.6 °F 93% 30.01 in 7.0 mi SW 26.5 mph 34.5 mph N/A Snow Light Snow
4:20 AM 32.0 °F 18.1 °F 30.2 °F 93% 30.01 in 2.5 mi SW 27.6 mph 33.4 mph N/A Snow Light Snow
4:45 AM 33.8 °F 21.0 °F 30.2 °F 87% 30.01 in 3.0 mi SW 25.3 mph 31.1 mph N/A Snow Light Snow
4:55 AM 33.3 °F 20.1 °F 30.6 °F 90% 30.00 in 2.5 mi SW 26.5 mph 29.9 mph N/A Snow Light Snow
5:10 AM 32.0 °F 17.6 °F 30.2 °F 93% 30.00 in 1.5 mi SW 29.9 mph 33.4 mph N/A Snow Light Snow
5:35 AM 32.0 °F 18.1 °F 30.2 °F 93% 29.99 in 4.0 mi SW 27.6 mph - N/A Snow Light Snow
5:55 AM 33.1 °F 20.9 °F 30.9 °F 92% 29.99 in 2.5 mi SW 21.9 mph - N/A Snow Light Snow
6:20 AM 33.8 °F 21.6 °F 32.0 °F 93% 29.99 in 3.0 mi SW 23.0 mph - N/A Snow Light Snow
6:45 AM 33.8 °F 21.0 °F 30.2 °F 87% 29.98 in 10.0 mi WSW 25.3 mph - N/A Rain , Snow Light Rain
6:55 AM 32.9 °F 19.6 °F 30.6 °F 91% 29.97 in 10.0 mi SW 26.5 mph 29.9 mph N/A Rain , Snow Light Rain Showers
7:30 AM 32.0 °F 18.4 °F 30.2 °F 93% 29.97 in 3.0 mi SW 26.5 mph - N/A Snow Light Snow Showers
7:55 AM 31.8 °F 17.9 °F 29.8 °F 92% 29.97 in 3.0 mi WSW 27.6 mph - N/A Rain Light Freezing Rain
8:20 AM 32.0 °F 18.9 °F 30.2 °F 93% 29.97 in 3.0 mi WSW 24.2 mph 28.8 mph N/A Snow Light Snow
8:45 AM 30.2 °F 14.7 °F 30.2 °F 100% 29.96 in 1.5 mi SW 32.2 mph 38.0 mph N/A Snow Light Snow
8:55 AM 30.9 °F 16.4 °F 29.7 °F 95% 29.96 in 1.2 mi SSW 28.8 mph 35.7 mph N/A Snow Light Snow
9:10 AM 32.0 °F 17.9 °F 30.2 °F 93% 29.95 in 1.0 mi SSW 28.8 mph - N/A Snow Light Snow
9:35 AM 33.8 °F 21.0 °F 32.0 °F 93% 29.94 in 10.0 mi SSW 25.3 mph 32.2 mph N/A Snow Light Snow
9:55 AM 34.2 °F 21.8 °F 32.4 °F 93% 29.93 in 10.0 mi SSW 24.2 mph 34.5 mph N/A Rain Light Rain
10:40 AM 33.8 °F 22.5 °F 32.0 °F 93% 29.94 in 10.0 mi SSW 19.6 mph 29.9 mph N/A Rain Light Rain
10:55 AM 33.4 °F 23.1 °F 31.8 °F 94% 29.94 in 10.0 mi WSW 16.1 mph 20.7 mph N/A Snow Light Snow
11:25 AM 33.8 °F 21.3 °F 32.0 °F 93% 29.93 in 8.0 mi SW 24.2 mph 33.4 mph N/A Rain Light Rain
11:50 AM 32.0 °F 18.1 °F 30.2 °F 93% 29.92 in 7.0 mi SW 27.6 mph 34.5 mph N/A Snow Light Snow
11:55 AM 31.5 °F 17.6 °F 30.6 °F 96% 29.92 in 9.0 mi SW 26.5 mph 33.4 mph N/A   Scattered Clouds
12:20 PM 32.0 °F 18.6 °F 30.2 °F 93% 29.93 in 5.0 mi SW 25.3 mph - N/A   Mostly Cloudy
12:45 PM 32.0 °F 18.4 °F 30.2 °F 93% 29.92 in 10.0 mi SW 26.5 mph - N/A   Mostly Cloudy
12:55 PM 31.5 °F 17.6 °F 30.6 °F 96% 29.91 in 10.0 mi SW 26.5 mph - N/A   Mostly Cloudy
1:50 PM 32.0 °F 18.9 °F 32.0 °F 100% 29.91 in 4.0 mi SW 24.2 mph - N/A   Mostly Cloudy
1:55 PM 31.8 °F 18.7 °F 31.3 °F 98% 29.91 in 4.0 mi SW 24.2 mph - N/A   Mostly Cloudy
2:40 PM 32.0 °F 19.2 °F 32.0 °F 100% 29.90 in 3.0 mi SW 23.0 mph - N/A Snow Light Snow
2:55 PM 32.0 °F 19.5 °F 32.0 °F 100% 29.89 in 2.5 mi SW 21.9 mph - N/A Snow Light Snow
3:45 PM 28.4 °F 19.1 °F 28.4 °F 100% 29.91 in 1.5 mi NW 10.4 mph - N/A Snow Light Snow
3:55 PM 27.5 °F 18.6 °F 27.5 °F 100% 29.91 in 1.0 mi NNW 9.2 mph - N/A Snow Light Snow
4:10 PM 26.6 °F 18.2 °F 26.6 °F 100% 29.91 in 0.8 mi North 8.1 mph - N/A Snow Light Snow
4:35 PM 26.6 °F 21.2 °F 26.6 °F 100% 29.91 in 0.8 mi NNW 4.6 mph - N/A Snow Light Snow
4:55 PM 25.9 °F 19.2 °F 25.9 °F 100% 29.91 in 1.0 mi North 5.8 mph - 0.00 in Snow Light Snow
5:20 PM 24.8 °F 16.9 °F 24.8 °F 100% 29.91 in 0.8 mi NNE 6.9 mph - N/A Snow Snow
5:45 PM 24.8 °F 16.9 °F 24.8 °F 100% 29.90 in 0.8 mi North 6.9 mph - N/A Snow Snow
5:55 PM 24.3 °F 16.3 °F 24.1 °F 99% 29.90 in 0.8 mi North 6.9 mph - 0.02 in Snow Snow
6:55 PM 23.4 °F 13.5 °F 23.0 °F 99% 29.90 in 0.8 mi NNE 9.2 mph - 0.02 in Snow Snow
7:10 PM 23.0 °F 13.1 °F 23.0 °F 100% 29.90 in 1.0 mi NE 9.2 mph - N/A Snow Light Snow
7:35 PM 23.0 °F 12.4 °F 21.2 °F 93% 29.90 in 1.2 mi NNE 10.4 mph - N/A Snow Light Snow
7:55 PM 22.3 °F 12.2 °F 21.2 °F 96% 29.90 in 1.8 mi NNE 9.2 mph - N/A Snow Light Snow
8:21 PM 21.2 °F 9.5 °F 21.2 °F 100% 29.90 in 3.0 mi North 11.5 mph - N/A Snow Light Snow
8:46 PM 21.2 °F 8.9 °F 19.4 °F 93% 29.90 in 4.0 mi NNE 12.7 mph - N/A Snow Light Snow
8:55 PM 20.1 °F 6.9 °F 18.9 °F 95% 29.90 in 3.0 mi NNE 13.8 mph - N/A Snow Light Snow
9:11 PM 19.4 °F 6.6 °F 17.6 °F 93% 29.90 in 9.0 mi NNE 12.7 mph - N/A Snow Light Snow
9:55 PM 19.2 °F 7.0 °F 17.1 °F 91% 29.90 in 10.0 mi North 11.5 mph - N/A Snow Light Snow
10:16 PM 19.4 °F 7.2 °F 15.8 °F 86% 29.91 in 10.0 mi North 11.5 mph - N/A Snow Light Snow
10:41 PM 17.6 °F 3.2 °F 15.8 °F 93% 29.91 in 10.0 mi North 15.0 mph - N/A   Overcast
10:55 PM 16.2 °F 1.9 °F 13.8 °F 90% 29.91 in 10.0 mi North 13.8 mph - 0.00 in   Overcast
11:46 PM 14.0 °F 0.5 °F 12.2 °F 93% 29.93 in 10.0 mi NNW 11.5 mph - N/A   Mostly Cloudy
11:55 PM 14.5 °F 0.5 °F 12.2 °F 90% 29.93 in 10.0 mi North 12.7 mph - N/A   Mostly Cloudy